Location: Clason Point
(40.8136°N, 73.8618°W)
Time: 16:07:39
(UTC+00:00)

Cosmos 1939 Rocket - Pass Details

Date: 16 September 2019
Orbit: 534 x 583 km, 97.4° (Epoch: 20 October)

Event Time Altitude Azimuth Distance (km) Brightness Sun altitude
Rises 23:30:41 0° 153° (SSE) 2,685 6.0 -6.0°
Reaches altitude 10° 23:32:51 10° 148° (SSE) 1,793 5.1 -6.4°
Maximum altitude 23:36:34 47° 74° (ENE) 720 3.0 -7.1°
Drops below altitude 10° 23:40:17 10° 0° (N) 1,797 5.6 -7.8°
Sets 23:42:27 0° 355° (N) 2,692 6.6 -8.2°
